Regional Weather Roundup
Issued by NWS

Home | Current Version | Previous Version | Text Only | Print | Product List | Glossary On
Versions: 1 2 3 4 5 6 7 8 9 10 11 12 13 14 15 16 17 18 19 20 21 22 23 24 25 26 27 28 29 30 31 32 33 34 35 36 37 38 39 40 41 42 43 44 45 46 47 48 49 50
058
ASUS43 KOAX 260810
RWRNE

WEATHER ROUNDUP FOR NEBRASKA
NATIONAL WEATHER SERVICE OMAHA NE
300 AM CDT TUE JUL 26 2016

NOTES: SATELLITE DATA IS BEING USED TO AUGMENT CLOUD COVER ABOVE
       12000 FEET.
       "FAIR" INDICATES FEW OR NO CLOUDS BELOW 12,000 FEET WITH NO
       SIGNIFICANT WEATHER AND/OR OBSTRUCTIONS TO VISIBILITY.

  * THESE STATIONS DO NOT REPORT WEATHER SUCH AS RAIN...SNOW OR FOG.

NEZ001>004-019>022-054>056-260900-
NEBRASKA PANHANDLE

CITY           SKY/WX    TMP DP  RH WIND       PRES   REMARKS
SCOTTSBLUFF    CLEAR     68  61  78 NE8       30.07F
ALLIANCE       CLEAR     64  61  90 E10       30.09F
CHADRON        CLEAR     76  61  59 S23G30    30.02F
KIMBALL        CLEAR     65  63  93 S12G17    30.14F
SIDNEY         CLEAR     68  62  81 S14       30.13F
$$

NEZ057>060-069>072-079>082-260900-
SOUTHWEST NEBRASKA

CITY           SKY/WX    TMP DP  RH WIND       PRES   REMARKS
NORTH PLATTE   CLEAR     67  64  90 E6        30.11F
IMPERIAL       CLEAR     69  64  84 S12       30.11S
LEXINGTON      CLEAR     67  61  80 SE3       30.12R
MCCOOK         CLEAR     69  63  81 E6        30.10F
OGALLALA       CLEAR     69  64  82 SE6       30.11S
$$

NEZ005>010-023>029-035>040-094-260900-
NORTH CENTRAL NEBRASKA

CITY           SKY/WX    TMP DP  RH WIND       PRES   REMARKS
VALENTINE      CLEAR     72  61  68 S12G21    30.07F
AINSWORTH      CLEAR     67  63  84 S9        30.10S
BROKEN BOW     CLEAR     66  62  87 SE3       30.11F
O`NEILL        CLEAR     67  61  81 S9        30.10S
ORD            CLEAR     66  61  84 E3        30.10F
THEDFORD       CLEAR     68  65  90 S6        30.11S
$$

NEZ041-046>049-061>064-073>077-083>087-260900-
SOUTH CENTRAL NEBRASKA

CITY           SKY/WX    TMP DP  RH WIND       PRES   REMARKS
GRAND ISLAND   CLEAR     66  62  87 S5        30.12S
AURORA         CLEAR     64  62  95 CALM      30.11S
HASTINGS       CLEAR     69  60  73 S6        30.12F
HEBRON         CLEAR     61  59  93 CALM      30.09F
HOLDREGE       PTCLDY    64  60  88 SE3       30.12S
KEARNEY *      CLEAR     64  61  88 S6        30.12S
YORK           CLEAR     66  63  88 CALM      30.11S
$$

NEZ011>018-030>034-042>045-260900-
NORTHEAST NEBRASKA

CITY           SKY/WX    TMP DP  RH WIND       PRES   REMARKS
NORFOLK        CLEAR     65  61  87 CALM      30.09F
ALBION         CLEAR     62  59  89 CALM      30.11F
BLAIR          PTCLDY    71  65  82 CALM      30.09F
FREMONT        CLEAR     66  64  93 CALM      30.10F
TEKAMAH        CLEAR     65  63  93 CALM      30.09F FOG
WAYNE          CLEAR     62  61  96 S5        30.10F
$$

NEZ050>053-065>068-078-088>093-260900-
SOUTHEAST NEBRASKA

CITY           SKY/WX    TMP DP  RH WIND       PRES   REMARKS
LINCOLN        CLEAR     65  63  93 N5        30.10S
OMAHA EPPLEY   PTCLDY    67  64  90 N3        30.08F
BEATRICE       PTCLDY    64  61  91 CALM      30.09S
FALLS CITY     CLEAR     68  66  93 CALM      30.06F
NEBRASKA CITY  CLEAR     71  65  81 CALM      30.08F
PLATTSMOUTH    PTCLDY    67  66  97 CALM      30.08F
$$

NEZ044-045-051>053-067-260900-
OMAHA AREA

CITY           SKY/WX    TMP DP  RH WIND       PRES   REMARKS
OMAHA EPPLEY   PTCLDY    67  64  90 N3        30.08F
BLAIR          PTCLDY    71  65  82 CALM      30.09F
FREMONT        CLEAR     66  64  93 CALM      30.10F
MILLARD        CLEAR     68  67  96 CALM      30.08F
OFFUTT AFB     CLEAR     65  65 100 CALM      30.07F
PLATTSMOUTH    PTCLDY    67  66  97 CALM      30.08F
WAHOO          FAIR      64  63  94 N3        30.09S
$$




USA.gov is the U.S. government's official web portal to all federal, state and local government web resources and services.